Regional Weather Roundup
Issued by NWS Sioux Falls, SD

Home | Current Version | Previous Version | Graphics & Text | Print | Product List | Glossary Off
Versions: 1 2 3 4 5 6 7 8 9 10 11 12 13 14 15 16 17 18 19 20 21 22 23 24 25 26 27 28 29 30 31 32 33 34 35 36 37 38 39 40 41 42 43 44 45 46 47 48 49 50

000
ASUS43 KFSD 241502
RWRFSD

WEATHER ROUNDUP FOR SE SOUTH DAKOTA/SW MINNESOTA/NW IOWA
NATIONAL WEATHER SERVICE SIOUX FALLS SD
1000 AM CDT FRI APR 24 2015

NOTE: "FAIR" INDICATES FEW OR NO CLOUDS BELOW 12,000 FEET WITH NO
SIGNIFICANT WEATHER AND OR OBSTRUCTIONS TO VISIBILITY.


SDZ038>040-050-052>070-241600-
SOUTHEAST SOUTH DAKOTA

CITY           SKY/WX    TMP DP  RH WIND       PRES   REMARKS
BROOKINGS      MOSUNNY   55  41  58 S25G31    29.68F
CHAMBERLAIN    NOT AVBL
HURON          PTSUNNY   58  42  55 S17G23    29.60F
MADISON        FAIR      55  41  58 S23G32    29.66F
MITCHELL       PTSUNNY   56  42  59 S17G26    29.63F
SIOUX FALLS    CLOUDY    54  42  64 SE16      29.69F
WINNER         FAIR      62  45  53 SW16      29.57F
YANKTON        CLOUDY    57  45  62 S16G22    29.67F
$$

MNZ071-072-080-081-089-090-097-098-241600-
SOUTHWEST MINNESOTA

CITY           SKY/WX    TMP DP  RH WIND       PRES   REMARKS
FAIRMONT       CLOUDY    45   9  23 SE21G33   29.81S
JACKSON        CLOUDY    46  37  71 SE20G26   29.78F
LUVERNE        CLOUDY    50  41  71 SE13      29.73F
MARSHALL       CLOUDY    50  37  62 S14       29.73R
MONTEVIDEO     CLOUDY    45  45 100 SE14      29.76F
REDWOOD FALLS  CLOUDY    50  40  68 SE20      29.76R
TRACY          CLOUDY    47  42  80 S22G31    29.71S
WORTHINGTON    CLOUDY    46  36  66 SE16G26   29.75F
$$

IAZ001>003-012>014-020>022-031-032-NEZ013-014-SDZ071-241600-
NORTHWEST IOWA

CITY           SKY/WX    TMP DP  RH WIND       PRES   REMARKS
DENISON        CLOUDY    52  45  76 S9G17     29.74F
ESTHERVILLE    CLOUDY    43  40  89 SE14      29.80F
SIOUX CITY     CLOUDY    58  45  62 S8        29.74S
SPENCER        LGT RAIN  48  38  68 SE13      29.78F
$$

ABBREVIATIONS USED IN REMARKS
   TC - TEMPERATURE IN CELSIUS
  WCI - WIND CHILL INDEX
   HX - HEAT INDEX
  VSB - VISIBILITY



USA.gov is the U.S. government's official web portal to all federal, state and local government web resources and services.